Tracking 31027 objects as of 19-Jul-2025
HD Live streaming from Space Station
objects crossing your sky now

THOR ABLESTAR DEB

Track THOR ABLESTAR DEB now!
10-day predictions


NORAD ID: 13511
Int'l Code: 1961-015KU
Perigee: 923.4 km
Apogee: 1,107.1 km
Inclination: 65.8 °
Period: 105.3 minutes
Semi major axis: 7386 km
RCS: 0.0083 m2 (small)
Launch date: June 29, 1961
Source: United States (US)
Launch site: AIR FORCE EASTERN TEST RANGE (AFETR)

Note: This is SATELLITE DEBRIS
Your satellite tracking list
KORSAT 7
Track 1 satellite(s)




NASA's NSSDC Master Catalog

Two Line Element Set (TLE):
1 13511U 61015KU  25199.42309509  .00000085  00000-0  18364-3 0  9990
2 13511  65.8431 316.1059 0124310 332.0439  88.7966 13.67625739245453
Source of the keplerian elements: AFSPC